• In Russia
  • List of Countries
  • For 7 days
  • Water Temperature
  • Satellite Maps
  • Weather Map
  • Weather Widgets
  • user-avatar
    Login

    Hourly Weather Cimiseni

    Today, 23 October, Tuesday

    Time Temperature Precipitation Wind Pressure Humidity
    00:00 +9°C° 0 mm 2 mps 757 mmHg 58%
    01:00 +8°C° 0 mm 2 mps 757 mmHg 59%
    02:00 +9°C° 0 mm 1 mps 757 mmHg 61%
    03:00 +8°C° 0 mm 1 mps 757 mmHg 62%
    04:00 +8°C° 0 mm 1 mps 757 mmHg 63%
    05:00 +8°C° 0 mm 1 mps 756 mmHg 65%
    06:00 +9°C° 0 mm 1 mps 756 mmHg 63%
    07:00 +9°C° 0 mm 1 mps 756 mmHg 61%
    08:00 +9°C° 0 mm 2 mps 756 mmHg 57%
    09:00 +10°C° 0 mm 2 mps 756 mmHg 53%
    10:00 +13°C° 0 mm 2 mps 756 mmHg 49%
    11:00 +13°C° 0 mm 3 mps 755 mmHg 44%
    12:00 +14°C° 0 mm 3 mps 754 mmHg 43%
    13:00 +15°C° 0 mm 4 mps 754 mmHg 42%
    14:00 +17°C° 0 mm 4 mps 753 mmHg 42%
    15:00 +16°C° 0 mm 3 mps 752 mmHg 45%
    16:00 +14°C° 0 mm 3 mps 752 mmHg 48%
    17:00 +14°C° 0 mm 2 mps 751 mmHg 51%
    18:00 +13°C° 0 mm 3 mps 750 mmHg 52%
    19:00 +13°C° 0 mm 4 mps 749 mmHg 54%
    20:00 +12°C° 0 mm 5 mps 748 mmHg 56%
    21:00 +12°C° 0 mm 5 mps 748 mmHg 57%
    22:00 +13°C° 0 mm 6 mps 747 mmHg 57%
    23:00 +13°C° 0 mm 6 mps 746 mmHg 58%

    Tomorrow, 24 October, Wednesday

    Time Temperature Precipitation Wind Pressure Humidity
    00:00 +11°C° 0.3 mm 7 mps 745 mmHg 59%
    01:00 +11°C° 0.3 mm 7 mps 745 mmHg 61%
    02:00 +11°C° 0.3 mm 8 mps 744 mmHg 63%
    03:00 +10°C° 0.3 mm 8 mps 743 mmHg 62%
    04:00 +10°C° 0.3 mm 8 mps 742 mmHg 62%
    05:00 +10°C° 0.3 mm 8 mps 741 mmHg 61%
    06:00 +10°C° 0 mm 8 mps 740 mmHg 59%
    07:00 +11°C° 0 mm 9 mps 739 mmHg 56%
    08:00 +11°C° 0 mm 9 mps 739 mmHg 53%
    09:00 +11°C° 0.5 mm 8 mps 738 mmHg 56%
    10:00 +11°C° 0.5 mm 8 mps 738 mmHg 58%
    11:00 +11°C° 0.5 mm 8 mps 737 mmHg 61%
    12:00 +11°C° 0.6 mm 7 mps 737 mmHg 57%
    13:00 +11°C° 0.6 mm 7 mps 736 mmHg 53%
    14:00 +11°C° 0.6 mm 7 mps 736 mmHg 49%
    15:00 +10°C° 0.2 mm 6 mps 736 mmHg 50%
    16:00 +10°C° 0.2 mm 6 mps 737 mmHg 51%
    17:00 +9°C° 0.2 mm 6 mps 737 mmHg 52%
    18:00 +8°C° 0 mm 7 mps 738 mmHg 54%
    19:00 +6°C° 0 mm 7 mps 739 mmHg 56%
    20:00 +5°C° 0 mm 7 mps 739 mmHg 58%
    21:00 +5°C° 0 mm 7 mps 740 mmHg 58%
    22:00 +4°C° 0 mm 7 mps 740 mmHg 59%
    23:00 +4°C° 0 mm 7 mps 741 mmHg 60%

    Day after tomorrow, 25 October, Thursday

    Time Temperature Precipitation Wind Pressure Humidity
    00:00 +4°C° 0 mm 8 mps 741 mmHg 60%
    01:00 +4°C° 0 mm 8 mps 741 mmHg 60%
    02:00 +3°C° 0 mm 9 mps 741 mmHg 60%
    03:00 +3°C° 0.1 mm 9 mps 741 mmHg 61%
    04:00 +5°C° 0.1 mm 10 mps 742 mmHg 62%
    05:00 +5°C° 0.1 mm 10 mps 742 mmHg 63%
    06:00 +5°C° 0.1 mm 10 mps 743 mmHg 61%
    07:00 +5°C° 0.1 mm 10 mps 743 mmHg 60%
    08:00 +5°C° 0.1 mm 10 mps 744 mmHg 59%
    09:00 +6°C° 0 mm 10 mps 745 mmHg 56%
    10:00 +6°C° 0 mm 10 mps 745 mmHg 54%
    11:00 +6°C° 0 mm 10 mps 746 mmHg 51%
    12:00 +7°C° 0 mm 10 mps 746 mmHg 49%
    13:00 +7°C° 0 mm 10 mps 746 mmHg 47%
    14:00 +8°C° 0 mm 9 mps 746 mmHg 45%
    15:00 +8°C° 0 mm 7 mps 746 mmHg 46%
    16:00 +8°C° 0 mm 5 mps 746 mmHg 47%
    17:00 +7°C° 0 mm 4 mps 746 mmHg 48%
    18:00 +8°C° 0 mm 3 mps 746 mmHg 49%
    19:00 +8°C° 0 mm 3 mps 746 mmHg 49%
    20:00 +7°C° 0 mm 3 mps 746 mmHg 50%
    21:00 +6°C° 0.1 mm 4 mps 746 mmHg 52%
    22:00 +7°C° 0.1 mm 6 mps 745 mmHg 55%
    23:00 +6°C° 0.1 mm 7 mps 745 mmHg 57%

    26 October, Friday

    Time Temperature Precipitation Wind Pressure Humidity
    00:00 +6°C° 0.3 mm 7 mps 745 mmHg 60%
    01:00 +8°C° 0.3 mm 7 mps 745 mmHg 63%
    02:00 +8°C° 0.3 mm 7 mps 745 mmHg 66%
    03:00 +8°C° 0 mm 7 mps 745 mmHg 68%
    04:00 +7°C° 0 mm 6 mps 746 mmHg 70%
    05:00 +7°C° 0 mm 6 mps 746 mmHg 72%
    06:00 +7°C° 0 mm 6 mps 747 mmHg 71%
    07:00 +6°C° 0 mm 7 mps 748 mmHg 70%
    08:00 +6°C° 0 mm 7 mps 748 mmHg 68%
    09:00 +8°C° 0 mm 7 mps 749 mmHg 62%
    10:00 +10°C° 0 mm 7 mps 749 mmHg 56%
    11:00 +11°C° 0 mm 7 mps 750 mmHg 50%
    12:00 +11°C° 0 mm 7 mps 750 mmHg 48%
    13:00 +12°C° 0 mm 7 mps 750 mmHg 46%
    14:00 +13°C° 0 mm 6 mps 750 mmHg 44%
    15:00 +12°C° 0 mm 5 mps 751 mmHg 46%
    16:00 +12°C° 0 mm 3 mps 751 mmHg 48%
    17:00 +12°C° 0 mm 2 mps 751 mmHg 50%
    18:00 +12°C° 0 mm 2 mps 751 mmHg 52%
    19:00 +11°C° 0 mm 1 mps 752 mmHg 54%
    20:00 +11°C° 0 mm 1 mps 752 mmHg 56%
    21:00 +10°C° 0 mm 1 mps 752 mmHg 58%
    22:00 +9°C° 0 mm 2 mps 752 mmHg 60%
    23:00 +9°C° 0 mm 2 mps 752 mmHg 61%

    27 October, Saturday

    Time Temperature Precipitation Wind Pressure Humidity
    00:00 +8°C° 0 mm 2 mps 752 mmHg 64%
    01:00 +8°C° 0 mm 2 mps 752 mmHg 66%
    02:00 +8°C° 0 mm 2 mps 752 mmHg 69%
    03:00 +8°C° 0 mm 3 mps 752 mmHg 70%
    04:00 +8°C° 0 mm 3 mps 751 mmHg 71%
    05:00 +8°C° 0 mm 3 mps 751 mmHg 72%
    06:00 +9°C° 0 mm 3 mps 751 mmHg 70%
    07:00 +9°C° 0 mm 3 mps 751 mmHg 68%
    08:00 +10°C° 0 mm 4 mps 751 mmHg 66%
    09:00 +12°C° 0 mm 4 mps 750 mmHg 60%
    10:00 +14°C° 0 mm 4 mps 750 mmHg 54%
    11:00 +17°C° 0 mm 5 mps 750 mmHg 48%
    12:00 +17°C° 0 mm 5 mps 750 mmHg 47%
    13:00 +19°C° 0 mm 5 mps 749 mmHg 46%
    14:00 +20°C° 0 mm 4 mps 749 mmHg 45%
    15:00 +19°C° 0 mm 4 mps 749 mmHg 47%
    16:00 +18°C° 0 mm 3 mps 749 mmHg 49%
    17:00 +18°C° 0 mm 2 mps 749 mmHg 52%
    18:00 +17°C° 0 mm 2 mps 750 mmHg 56%
    19:00 +16°C° 0 mm 2 mps 750 mmHg 61%
    20:00 +15°C° 0 mm 2 mps 750 mmHg 66%
    21:00 +15°C° 0 mm 2 mps 751 mmHg 69%
    22:00 +14°C° 0 mm 1 mps 751 mmHg 72%
    23:00 +14°C° 0 mm 1 mps 751 mmHg 75%

    28 October, Sunday

    Time Temperature Precipitation Wind Pressure Humidity
    00:00 +13°C° 0 mm 1 mps 752 mmHg 77%
    01:00 +13°C° 0 mm 1 mps 752 mmHg 79%
    02:00 +13°C° 0 mm 1 mps 752 mmHg 81%
    03:00 +12°C° 0 mm 2 mps 752 mmHg 82%
    04:00 +12°C° 0 mm 2 mps 752 mmHg 83%
    05:00 +12°C° 0 mm 2 mps 752 mmHg 84%
    06:00 +12°C° 0 mm 2 mps 753 mmHg 81%
    07:00 +13°C° 0 mm 2 mps 753 mmHg 78%
    08:00 +13°C° 0 mm 2 mps 753 mmHg 76%
    09:00 +15°C° 0 mm 2 mps 753 mmHg 67%
    10:00 +18°C° 0 mm 2 mps 753 mmHg 58%
    11:00 +20°C° 0 mm 3 mps 753 mmHg 49%
    12:00 +21°C° 0 mm 3 mps 753 mmHg 45%
    13:00 +24°C° 0 mm 3 mps 753 mmHg 41%
    14:00 +25°C° 0 mm 3 mps 753 mmHg 37%
    15:00 +24°C° 0 mm 3 mps 753 mmHg 40%
    16:00 +21°C° 0 mm 3 mps 753 mmHg 43%
    17:00 +20°C° 0 mm 2 mps 753 mmHg 47%
    18:00 +19°C° 0 mm 3 mps 753 mmHg 52%
    19:00 +19°C° 0 mm 3 mps 753 mmHg 57%
    20:00 +18°C° 0 mm 3 mps 753 mmHg 62%
    21:00 +17°C° 0 mm 3 mps 753 mmHg 67%
    22:00 +16°C° 0 mm 3 mps 753 mmHg 73%
    23:00 +16°C° 0 mm 3 mps 753 mmHg 79%

    29 October, Monday

    Time Temperature Precipitation Wind Pressure Humidity
    00:00 +16°C° 0 mm 3 mps 753 mmHg 83%
    01:00 +14°C° 0 mm 3 mps 753 mmHg 86%
    02:00 +14°C° 0 mm 3 mps 753 mmHg 90%
    03:00 +14°C° 0 mm 3 mps 753 mmHg 91%
    04:00 +14°C° 0 mm 3 mps 753 mmHg 92%
    05:00 +14°C° 0 mm 4 mps 753 mmHg 93%
    06:00 +14°C° 0 mm 4 mps 752 mmHg 92%
    07:00 +14°C° 0 mm 4 mps 752 mmHg 91%
    08:00 +14°C° 0 mm 5 mps 752 mmHg 89%
    09:00 +16°C° 0 mm 5 mps 752 mmHg 80%
    10:00 +17°C° 0 mm 5 mps 752 mmHg 71%
    11:00 +20°C° 0 mm 6 mps 752 mmHg 61%
    12:00 +21°C° 0 mm 6 mps 752 mmHg 57%
    13:00 +22°C° 0 mm 6 mps 751 mmHg 53%
    14:00 +23°C° 0 mm 6 mps 751 mmHg 48%
    15:00 +22°C° 0 mm 5 mps 751 mmHg 51%
    16:00 +21°C° 0 mm 4 mps 751 mmHg 53%
    17:00 +20°C° 0 mm 4 mps 751 mmHg 56%
    18:00 +20°C° 0 mm 4 mps 751 mmHg 57%
    19:00 +19°C° 0 mm 4 mps 751 mmHg 59%
    20:00 +18°C° 0 mm 4 mps 751 mmHg 61%
    21:00 +18°C° 0 mm 4 mps 751 mmHg 62%
    22:00 +17°C° 0 mm 4 mps 751 mmHg 63%
    23:00 +17°C° 0 mm 3 mps 751 mmHg 64%
    Show more